TimeEDT,TemperatureF,Dew PointF,Humidity,Sea Level PressureIn,VisibilityMPH,Wind Direction,Wind SpeedMPH,Gust SpeedMPH,PrecipitationIn,Events,Conditions,WindDirDegrees,DateUTC
12:53 AM,43.0,32.0,65,30.40,10.0,SE,8.1,-,N/A,,Clear,130,2013-04-22 04:53:00
1:53 AM,42.1,30.9,65,30.39,10.0,SE,8.1,-,N/A,,Clear,140,2013-04-22 05:53:00
2:53 AM,39.9,30.9,70,30.37,10.0,SE,9.2,-,N/A,,Clear,130,2013-04-22 06:53:00
3:53 AM,39.9,30.0,68,30.36,10.0,SE,10.4,-,N/A,,Clear,130,2013-04-22 07:53:00
4:53 AM,39.0,28.9,67,30.34,10.0,SE,10.4,-,N/A,,Clear,130,2013-04-22 08:53:00
5:53 AM,37.9,28.0,68,30.35,10.0,SE,6.9,-,N/A,,Clear,130,2013-04-22 09:53:00
6:53 AM,36.0,28.0,73,30.36,10.0,ESE,5.8,-,N/A,,Clear,120,2013-04-22 10:53:00
7:53 AM,37.9,28.9,70,30.36,10.0,SE,6.9,-,N/A,,Clear,130,2013-04-22 11:53:00
8:53 AM,45.0,30.0,56,30.34,10.0,SSE,9.2,-,N/A,,Clear,150,2013-04-22 12:53:00
9:53 AM,50.0,30.0,46,30.34,-9999.0,North,-9999.0,-,N/A,,Clear,0,2013-04-22 13:53:00
10:53 AM,55.0,30.9,40,30.32,10.0,SE,8.1,-,N/A,,Clear,130,2013-04-22 14:53:00
11:53 AM,57.9,30.9,36,30.25,10.0,South,8.1,-,N/A,,Clear,180,2013-04-22 15:53:00
12:53 PM,62.1,33.1,34,30.23,10.0,Calm,Calm,-,N/A,,Clear,0,2013-04-22 16:53:00
1:53 PM,64.0,30.9,29,30.21,10.0,ESE,10.4,-,N/A,,Clear,120,2013-04-22 17:53:00
2:53 PM,64.9,30.0,27,30.19,10.0,Variable,4.6,-,N/A,,Clear,0,2013-04-22 18:53:00
3:53 PM,64.9,36.0,34,30.16,10.0,WSW,8.1,-,N/A,,Clear,240,2013-04-22 19:53:00
4:53 PM,64.9,32.0,29,30.18,10.0,Calm,Calm,-,N/A,,Clear,0,2013-04-22 20:53:00
5:53 PM,66.9,30.9,26,30.10,10.0,SSE,12.7,-,N/A,,Clear,150,2013-04-22 21:53:00
6:53 PM,64.9,30.0,27,30.08,10.0,SSE,10.4,-,N/A,,Clear,150,2013-04-22 22:53:00
7:53 PM,62.1,30.0,30,30.13,10.0,ESE,11.5,-,N/A,,Clear,120,2013-04-22 23:53:00
8:53 PM,55.9,30.9,39,30.09,10.0,SE,6.9,-,N/A,,Clear,130,2013-04-23 00:53:00
9:53 PM,53.1,32.0,45,30.14,10.0,ESE,5.8,-,N/A,,Clear,120,2013-04-23 01:53:00
10:53 PM,52.0,33.1,49,30.13,10.0,ESE,5.8,-,N/A,,Clear,110,2013-04-23 02:53:00
11:53 PM,50.0,30.9,48,30.11,10.0,ESE,6.9,-,N/A,,Clear,120,2013-04-23 03:53:00